• Join FlightAware (Why Join?)
  • Login
  • US Flag 
11:00AM EDT


 

Airport Tracker/Info


-or-


 

Live Flight TrackerFlight Track Log ✈ DAL6234 ✈ 10-Apr-2013 ✈ KSYR - KLGA

Flight Track Log - Related Links

Times and Time Zones

All times are in EDT time to prevent confusion due to time zone crossing. See the DAL6234 flight status page for this flight to view local times or setup timezone preferences in your user account.

Time Position Orientation Groundspeed Altitude Reporting Facility
EDT Latitude Longitude Course Direction KTS MPH feet Rate Location/Type
08:17PM 43.1075 -76.1375 262° West 192 221 1,200  Level Boston Center
08:17PM 43.1044 -76.1658 262° West 182 209 2,500 2,400 Climbing Boston Center
08:18PM 43.0603 -76.1775 191° South 240 276 5,000 2,100 Climbing Boston Center
08:19PM 43.0344 -76.1331 128° Southeast 294 338 5,700 2,040 Climbing Boston Center
08:20PM 42.9875 -76.0367 124° Southeast 313 360 8,000 2,280 Climbing Boston Center
08:21PM 42.9453 -75.9206 116° Southeast 328 377 10,400 1,860 Climbing Boston Center
08:22PM 42.8883 -75.8042 124° Southeast 346 398 11,800 1,380 Climbing Boston Center
08:23PM 42.8214 -75.6731 125° Southeast 384 442 13,300 2,100 Climbing Boston Center
08:24PM 42.7542 -75.5422 125° Southeast 416 479 16,000 2,520 Climbing Boston Center
08:25PM 42.6928 -75.4147 123° Southeast 416 479 18,400 1,860 Climbing Boston Center
08:26PM 42.6314 -75.2906 124° Southeast 422 486 19,800 1,140 Climbing Boston Center
08:27PM 42.5597 -75.1547 126° Southeast 429 494 20,700 600 Climbing Boston Center
08:28PM 42.4900 -75.0164 124° Southeast 440 506 21,000 120 Climbing Boston Center
08:29PM 42.4158 -74.8756 125° Southeast 451 519 21,000  Level Boston Center
08:30PM 42.3439 -74.7350 125° Southeast 456 525 21,000  Level Boston Center
08:31PM 42.2694 -74.5892 125° Southeast 463 533 21,000 -480 Level Boston Center
08:32PM 42.1931 -74.4494 126° Southeast 463 533 20,100 -1,020 Descending Boston Center
08:33PM 42.1144 -74.2900 124° Southeast 463 533 19,000 -600 Descending Boston Center
08:34PM 42.0072 -74.2114 151° Southeast 430 495 19,000 -840 Level Boston Center
08:35PM 41.8997 -74.1472 156° South 430 495 17,400 -1,740 Descending Boston Center
08:36PM 41.7986 -74.0886 157° South 415 478 15,500 -1,920 Descending Boston Center
08:37PM 41.7014 -74.0361 158° South 383 441 13,700 -1,740 Descending Boston Center
08:38PM 41.6103 -73.9839 157° South 367 422 12,100 -1,140 Descending Boston Center
08:40PM 41.4895 -73.8637 156° South  Level FlightAware Approximate
08:42PM 41.2833 -73.7500 217° Southwest 310 357 8,000  Level New York TRACON
08:43PM 41.2167 -73.6833 143° Southeast 302 348 8,000 -900 Level New York TRACON
08:45PM 41.0984 -73.5850 217° Southwest  Level FlightAware Approximate
08:47PM 40.9380 -73.7286 217° Southwest  Level FlightAware Approximate
08:48PM 40.9000 -73.7667 180° South 210 242 2,900  Level New York TRACON
08:50PM 40.7827 -73.8667 180° South  Level FlightAware Approximate
08:51PM 40.8000 -73.8500 180° South 137 158 400  Level New York TRACON
08:52PM 40.7667 -73.8667 180° South  Level FlightAware Approximate
08:53PM 40.7772 -73.8726 180° South  Level Estimated
08:53PM 40.7667 -73.8667 180° South  Level FlightAware Approximate
09:00PM 40.7772 -73.8726 180° South  Level Estimated
09:01PM 40.7772 -73.8726 180° South  Level Estimated